EW4022 Weather Reports


time (UTC)temp
C
wind
direction
speed
KPH
gust
KPH
rain 1hr
cm
rain 24hr
cm
rain mn
cm
humidity
%
barometer
mb
20260502170510 15 244 3.2 8.0 0.00 0.00 0.00 40 973.7
20260502164011 15 223 3.2 14.5 0.00 0.00 0.00 39 974.2
20260502163508 16 216 3.2 9.7 0.00 0.00 0.00 39 974.2
20260502163011 15 229 3.2 9.7 0.00 0.00 0.00 40 974.1
20260502162511 15 271 1.6 14.5 0.00 0.00 0.00 43 974.3
20260502162010 14 9 1.6 14.5 0.00 0.00 0.00 43 974.4
20260502161505 14 23 6.4 14.5 0.00 0.00 0.00 43 974.4
20260502161009 14 247 1.6 12.9 0.00 0.00 0.00 47 974.5
20260502160506 14 270 3.2 9.7 0.00 0.00 0.00 43 974.7
20260502152101 13 237 3.2 12.9 0.00 0.00 0.00 48 974.9
20260502151622 13 203 4.8 12.9 0.00 0.00 0.00 49 974.9
20260502151059 12 209 1.6 8.0 0.00 0.00 0.00 50 975.0
20260502150559 12 252 1.6 8.0 0.00 0.00 0.00 48 974.9
20260502150108 12 253 3.2 9.7 0.00 0.00 0.00 50 974.9
20260502130551 10 5 0.0 3.2 0.00 0.00 0.00 54 975.0
20260502123550 10 5 0.0 3.2 0.00 0.00 0.00 55 974.9
20260502123100 10 5 1.6 4.8 0.00 0.00 0.00 55 974.9
20260502122550 10 5 1.6 4.8 0.00 0.00 0.00 55 975.0
20260502122050 10 5 0.0 4.8 0.00 0.00 0.00 57 975.0
20260502121550 9 5 0.0 4.8 0.00 0.00 0.00 57 975.0
20260502121050 9 5 0.0 4.8 0.00 0.00 0.00 57 974.9
20260502120548 9 5 0.0 4.8 0.00 0.00 0.00 57 974.9
20260502115551 9 5 0.0 3.2 0.00 0.00 0.00 57 974.8
20260502115051 9 271 0.0 4.8 0.00 0.00 0.00 57 974.7
20260502114549 9 271 1.6 4.8 0.00 0.00 0.00 57 974.8
20260502114047 9 271 1.6 3.2 0.00 0.00 0.00 57 974.7
20260502113550 9 271 0.0 3.2 0.00 0.00 0.00 57 974.5
20260502113050 9 271 0.0 1.6 0.00 0.00 0.00 58 974.4
20260502112545 9 271 0.0 1.6 0.00 0.00 0.00 59 974.4
20260502112045 8 271 0.0 1.6 0.00 0.00 0.00 57 974.5
20260502111547 8 271 0.0 0.0 0.00 0.00 0.00 59 974.6
20260502111045 8 271 0.0 0.0 0.00 0.00 0.00 58 974.5
20260502110545 8 271 0.0 0.0 0.00 0.00 0.00 61 974.6
20260502110055 8 271 0.0 3.2 0.00 0.00 0.00 60 974.5
20260502105547 9 271 0.0 3.2 0.00 0.00 0.00 57 974.4
20260502105044 9 271 0.0 6.4 0.00 0.00 0.00 57 974.4
20260502104549 9 271 1.6 9.7 0.00 0.00 0.00 55 974.4
20260502104043 8 275 1.6 6.4 0.00 0.00 0.00 55 974.4
20260502103542 9 273 0.0 3.2 0.00 0.00 0.00 58 974.5
20260502103047 9 273 0.0 3.2 0.00 0.00 0.00 56 974.5
20260502102543 9 273 0.0 3.2 0.00 0.00 0.00 55 974.6
20260502102041 9 273 0.0 3.2 0.00 0.00 0.00 55 974.5
20260502101602 9 273 0.0 4.8 0.00 0.00 0.00 54 974.5
20260502101039 10 273 1.6 4.8 0.00 0.00 0.00 54 974.6
20260502100539 10 273 0.0 6.4 0.00 0.00 0.00 53 974.6
20260502091034 10 225 1.6 9.7 0.00 0.00 0.00 56 974.2
20260502090534 10 22 0.0 4.8 0.00 0.00 0.00 61 974.3
20260502071524 11 229 0.0 4.8 0.00 0.00 0.00 67 973.9
20260502071026 11 229 0.0 8.0 0.00 0.00 0.00 67 973.9
20260502070524 11 5 1.6 9.7 0.00 0.00 0.00 66 974.1
20260502070031 11 230 0.0 8.0 0.00 0.00 0.00 66 974.1
20260502065623 11 13 0.0 4.8 0.00 0.00 0.00 66 974.0
20260502065022 11 13 0.0 6.4 0.00 0.00 0.00 66 974.1
20260502064522 11 22 1.6 6.4 0.00 0.00 0.00 66 974.0
20260502064021 11 22 1.6 8.0 0.00 0.00 0.00 66 974.0
20260502063521 11 24 0.0 11.3 0.00 0.00 0.00 66 974.1
20260502063025 11 271 1.6 11.3 0.00 0.00 0.00 66 974.1
20260502062523 11 275 0.0 3.2 0.00 0.00 0.00 66 974.2
20260502062024 11 275 0.0 4.8 0.00 0.00 0.00 65 974.1
20260502061520 11 275 1.6 9.7 0.00 0.00 0.00 65 974.3
20260502061019 11 275 1.6 9.7 0.00 0.00 0.00 65 974.3
20260502060519 11 270 0.0 6.4 0.00 0.00 0.00 65 974.2
20260502060018 11 360 0.0 3.2 0.00 0.00 0.00 65 974.3
20260502055524 11 360 0.0 3.2 0.00 0.00 0.00 64 974.4
20260502055016 11 360 0.0 4.8 0.00 0.00 0.00 64 974.2
20260502054515 11 360 1.6 4.8 0.00 0.00 0.00 64 974.1
20260502054014 12 360 0.0 6.4 0.00 0.00 0.00 63 974.1
20260502053514 12 31 0.0 6.4 0.00 0.00 0.00 63 974.1
20260502053014 12 31 1.6 6.4 0.00 0.00 0.00 63 974.2
20260502052520 12 50 1.6 8.0 0.00 0.00 0.00 62 974.1
20260502052013 12 11 0.0 6.4 0.00 0.00 0.00 62 974.2
20260502051522 12 19 0.0 6.4 0.00 0.00 0.00 62 974.1
20260502051011 12 19 3.2 6.4 0.00 0.00 0.00 62 974.2
20260502050510 12 34 1.6 6.4 0.00 0.00 0.00 62 974.1
20260502050011 12 35 0.0 8.0 0.00 0.00 0.00 62 974.2
20260502045511 12 36 1.6 8.0 0.00 0.00 0.00 62 974.2
20260502045009 12 207 1.6 14.5 0.00 0.00 0.00 62 974.1
20260502044510 12 10 3.2 14.5 0.00 0.00 0.00 62 974.1
20260502044006 13 23 1.6 6.4 0.00 0.00 0.00 63 974.1
20260502043505 13 23 1.6 4.8 0.00 0.00 0.00 63 974.0
20260502043012 13 24 0.0 8.0 0.00 0.00 0.00 62 973.9
20260502042505 13 5 4.8 9.7 0.00 0.00 0.00 63 973.9
20260502042004 13 245 3.2 11.3 0.00 0.00 0.00 63 973.9
20260502041503 13 255 1.6 6.4 0.00 0.00 0.00 63 973.8
20260502041002 13 270 1.6 6.4 0.00 0.00 0.00 63 973.8
20260502040502 13 270 1.6 8.0 0.00 0.00 0.00 63 973.9
20260502040100 13 270 3.2 12.9 0.00 0.00 0.00 62 973.7
20260502035600 13 5 4.8 12.9 0.00 0.00 0.00 62 973.6
20260502035103 13 271 4.8 14.5 0.00 0.00 0.00 62 973.7
20260502034600 13 223 1.6 17.7 0.00 0.00 0.00 63 973.7
20260502034100 13 68 1.6 17.7 0.00 0.00 0.00 62 973.5
20260502033600 14 271 11.3 20.9 0.00 0.00 0.00 62 973.5
20260502033105 14 126 4.8 12.9 0.00 0.00 0.00 62 973.5
20260502032559 14 40 3.2 12.9 0.00 0.00 0.00 62 973.5
20260502032059 14 241 1.6 11.3 0.00 0.00 0.00 62 973.2
20260502031603 14 221 1.6 12.9 0.00 0.00 0.00 62 973.2
20260502031059 14 216 4.8 12.9 0.00 0.00 0.00 61 973.2
20260502030559 14 21 1.6 9.7 0.00 0.00 0.00 61 973.1
20260502025557 15 360 3.2 9.7 0.00 0.00 0.00 60 973.0
20260502025057 15 31 3.2 9.7 0.00 0.00 0.00 59 972.9
20260502024557 15 254 3.2 9.7 0.00 0.00 0.00 59 973.0
20260502024057 15 224 3.2 9.7 0.00 0.00 0.00 58 973.0
20260502023557 15 57 3.2 9.7 0.00 0.00 0.00 58 973.0
20260502023110 15 35 1.6 9.7 0.00 0.00 0.00 57 972.9
20260502022556 15 261 0.0 8.0 0.00 0.00 0.00 58 972.8
20260502022056 15 193 0.0 8.0 0.00 0.00 0.00 58 972.7
20260502021559 15 250 0.0 4.8 0.00 0.00 0.00 60 972.5
20260502021057 14 251 0.0 8.0 0.00 0.00 0.00 63 972.4
20260502020556 14 246 0.0 8.0 0.00 0.00 0.00 65 972.1
20260502020056 14 215 0.0 1.6 0.00 0.00 0.00 69 971.9
20260502015556 14 215 0.0 4.8 0.00 0.00 0.00 69 971.9
20260502015058 14 215 1.6 4.8 0.00 0.00 0.00 69 971.9
20260502014555 15 215 0.0 4.8 0.00 0.00 0.00 69 971.9
20260502014058 15 215 1.6 4.8 0.00 0.00 0.00 68 971.8
20260502013555 15 215 1.6 6.4 0.00 0.00 0.00 67 971.8
20260502013055 15 215 1.6 9.7 0.00 0.00 0.00 67 971.8
20260502012555 15 215 4.8 9.7 0.00 0.00 0.00 67 971.7
20260502012055 15 210 1.6 8.0 0.00 0.00 0.00 65 971.6
20260502011558 15 210 4.8 8.0 0.00 0.00 0.00 64 971.4
20260502011055 15 211 1.6 6.4 0.00 0.00 0.00 63 971.3
20260502010557 15 211 3.2 4.8 0.00 0.00 0.00 62 971.3
20260502010054 16 211 0.0 9.7 0.00 0.00 0.00 62 971.2
20260502005554 16 213 1.6 9.7 0.00 0.00 0.00 61 971.1
20260502005056 16 221 1.6 6.4 0.00 0.00 0.00 61 970.9
20260502004609 16 221 1.6 3.2 0.00 0.00 0.00 61 970.9
20260502004053 16 221 0.0 3.2 0.00 0.00 0.00 60 970.7
20260502003554 16 221 0.0 4.8 0.00 0.00 0.00 60 970.8
20260502003053 16 221 0.0 4.8 0.00 0.00 0.00 58 970.6
20260502002553 17 213 0.0 4.8 0.00 0.00 0.00 60 970.6
20260502002053 17 213 0.0 6.4 0.00 0.00 0.00 58 970.5
20260502001553 17 213 3.2 6.4 0.00 0.00 0.00 57 970.4
20260502001052 17 223 0.0 6.4 0.00 0.00 0.00 57 970.3
20260502000552 17 223 0.0 6.4 0.00 0.00 0.00 57 970.4
20260502000052 17 223 1.6 3.2 0.00 0.00 0.00 56 970.2
20260501235552 17 223 0.0 6.4 0.00 0.00 0.00 56 970.1
20260501235052 17 223 3.2 8.0 0.00 0.00 0.00 55 969.9
20260501234552 18 27 3.2 6.4 0.00 0.00 0.00 55 969.8
20260501234052 18 28 0.0 3.2 0.00 0.00 0.00 55 969.8
20260501233552 18 28 0.0 4.8 0.00 0.00 0.00 53 969.9
20260501233052 18 28 0.0 4.8 0.00 0.00 0.00 52 969.7
20260501232553 19 28 0.0 6.4 0.00 0.00 0.00 52 969.6
20260501232051 19 28 1.6 8.0 0.00 0.00 0.00 48 969.6
20260501231559 20 15 0.0 4.8 0.00 0.00 0.00 48 969.6
20260501231051 20 16 1.6 9.7 0.00 0.00 0.00 47 969.5
20260501230551 20 9 1.6 6.4 0.00 0.00 0.00 46 969.6
20260501230050 20 9 0.0 6.4 0.00 0.00 0.00 50 969.5
20260501225551 20 9 0.0 8.0 0.00 0.00 0.00 47 969.5
20260501225051 20 269 1.6 9.7 0.00 0.00 0.00 46 969.5
20260501224552 20 270 3.2 9.7 0.00 0.00 0.00 47 969.6
20260501224049 20 17 3.2 8.0 0.00 0.00 0.00 47 969.5
20260501223551 20 62 3.2 8.0 0.00 0.00 0.00 48 969.5
20260501223107 20 5 0.0 12.9 0.00 0.00 0.00 50 969.6
20260501222549 20 271 4.8 12.9 0.00 0.00 0.00 47 969.6
20260501222049 20 51 3.2 8.0 0.00 0.00 0.00 47 969.6
20260501221548 20 26 3.2 16.1 0.00 0.00 0.00 46 969.7
20260501221048 20 13 4.8 16.1 0.00 0.00 0.00 48 969.7
20260501220547 20 30 3.2 12.9 0.00 0.00 0.00 46 969.8
20260501220047 20 16 1.6 9.7 0.00 0.00 0.00 47 969.8
20260501215547 19 270 1.6 9.7 0.00 0.00 0.00 48 969.8
20260501215046 19 25 1.6 9.7 0.00 0.00 0.00 48 969.8
20260501214546 19 49 3.2 9.7 0.00 0.00 0.00 46 969.9
20260501214046 19 17 3.2 9.7 0.00 0.00 0.00 49 970.0
20260501213544 19 40 1.6 12.9 0.00 0.00 0.00 47 970.0
20260501213048 19 81 3.2 14.5 0.00 0.00 0.00 48 970.1
20260501212544 20 15 6.4 14.5 0.00 0.00 0.00 47 970.1
20260501212043 20 44 4.8 12.9 0.00 0.00 0.00 46 970.2
20260501211543 20 270 3.2 9.7 0.00 0.00 0.00 47 970.3
20260501211042 20 271 1.6 14.5 0.00 0.00 0.00 46 970.2
20260501210542 20 19 1.6 8.0 0.00 0.00 0.00 46 970.3
20260501210041 20 17 1.6 8.0 0.00 0.00 0.00 46 970.3
20260501205540 19 49 3.2 14.5 0.00 0.00 0.00 46 970.4
20260501205040 20 44 4.8 14.5 0.00 0.00 0.00 46 970.4
20260501204540 20 59 3.2 14.5 0.00 0.00 0.00 45 970.4
20260501204040 20 28 1.6 12.9 0.00 0.00 0.00 47 970.4
20260501203538 20 85 4.8 12.9 0.00 0.00 0.00 45 970.5
20260501203053 20 26 4.8 17.7 0.00 0.00 0.00 44 970.5
20260501202537 20 9 6.4 17.7 0.00 0.00 0.00 44 970.6
20260501202037 20 47 3.2 12.9 0.00 0.00 0.00 43 970.7
20260501201536 20 275 1.6 11.3 0.00 0.00 0.00 41 970.7
20260501201034 20 271 3.2 11.3 0.00 0.00 0.00 38 970.8
20260501200537 21 271 1.6 11.3 0.00 0.00 0.00 37 970.9
20260501200035 21 271 6.4 11.3 0.00 0.00 0.00 38 971.1
20260501195533 21 38 1.6 11.3 0.00 0.00 0.00 39 971.0
20260501195032 21 51 1.6 6.4 0.00 0.00 0.00 37 971.2
20260501194532 21 50 3.2 6.4 0.00 0.00 0.00 38 971.3
20260501194030 21 271 1.6 6.4 0.00 0.00 0.00 40 971.4
20260501193529 20 270 0.0 14.5 0.00 0.00 0.00 45 971.5
20260501193028 20 270 3.2 14.5 0.00 0.00 0.00 40 971.6
20260501192527 21 270 1.6 9.7 0.00 0.00 0.00 46 971.7
20260501192026 20 360 3.2 12.9 0.00 0.00 0.00 44 971.8
20260501191525 20 360 3.2 16.1 0.00 0.00 0.00 48 972.0
20260501191024 20 197 6.4 16.1 0.00 0.00 0.00 45 972.2
20260501190523 20 13 3.2 11.3 0.00 0.00 0.00 47 972.3
20260501190030 20 213 1.6 14.5 0.00 0.00 0.00 47 972.3
20260501185521 19 34 1.6 12.9 0.00 0.00 0.00 47 972.4
20260501185021 20 271 3.2 17.7 0.00 0.00 0.00 50 972.4
20260501184547 19 270 3.2 17.7 0.00 0.00 0.00 49 972.5
20260501184019 19 5 4.8 16.1 0.00 0.00 0.00 47 972.6
20260501183521 19 360 6.4 16.1 0.00 0.00 0.00 45 972.7
20260501183018 19 271 4.8 12.9 0.00 0.00 0.00 48 972.7
20260501182517 19 62 3.2 12.9 0.00 0.00 0.00 46 972.8
20260501182016 19 252 1.6 12.9 0.00 0.00 0.00 47 972.8
20260501181516 19 271 1.6 16.1 0.00 0.00 0.00 47 973.0
20260501181015 18 275 1.6 16.1 0.00 0.00 0.00 47 973.0
20260501180517 19 270 3.2 12.9 0.00 0.00 0.00 48 973.2
20260501180019 18 29 1.6 12.9 0.00 0.00 0.00 49 973.2
20260501175512 18 5 1.6 12.9 0.00 0.00 0.00 48 973.4
20260501175012 18 5 3.2 12.9 0.00 0.00 0.00 50 973.5
20260501174512 18 271 3.2 11.3 0.00 0.00 0.00 46 973.5
20260501174012 18 266 3.2 8.0 0.00 0.00 0.00 48 973.4
20260501173510 18 271 4.8 11.3 0.00 0.00 0.00 44 973.6
20260501173009 18 245 3.2 11.3 0.00 0.00 0.00 50 973.8